QPF
0.00 0.00 0.00 0.00 0.00 0.00 0.00 0.00 0.00 0.00 0.00 0.00 0.00 0.00 0.00 0.00 0.00 0.00 0.00 0.00 0.00 0.00 0.00 0.00 0.00 0.00 0.00 0.00 0.00 0.00 0.00 0.00 0.00 0.00 0.00 0.00 0.00 0.00 0.00 0.00 0.00 0.00 0.00 0.00 0.00
0.00 0.00 0.00 0.00 0.00 0.00 0.00 0.00 0.00 0.00 0.00 0.00 0.00 0.00 0.00 0.00 0.00 0.00 0.00 0.00 0.00 0.00 0.00 0.00 0.00 0.00 0.00 0.00 0.00 0.00 0.00 0.00 0.00 0.00 0.00 0.00 0.00 0.00 0.00 0.00 0.00 0.00 0.00 0.00 0.00
0.00 0.00 0.00 0.00 0.00 0.00 0.00 0.00 0.00 0.00 0.00 0.00 0.00 0.00 0.00 0.00 0.00 0.00 0.00 0.00 0.00 0.00 0.00 0.00 0.00 0.00 0.00 0.00 0.00 0.00 0.00 0.00 0.00 0.00 0.00 0.00 0.00 0.00 0.00 0.00 0.00 0.00 0.00 0.00 0.00
0.00 0.00 0.00 0.00 0.00 0.00 0.00 0.00 0.00 0.00 0.00 0.00 0.00 0.00 0.00 0.00 0.00 0.00 0.00 0.00 0.00 0.00 0.00 0.00 0.00 0.00 0.00 0.00 0.00 0.00 0.00 0.00 0.00 0.00 0.00 0.00 0.00 0.00 0.00 0.00 0.01 0.02 0.00 0.00 0.00
0.00 0.00 0.00 0.00 0.00 0.00 0.00 0.00 0.00 0.00 0.00 0.00 0.00 0.00 0.00 0.00 0.00 0.00 0.00 0.00 0.00 0.00 0.00 0.00 0.00 0.00 0.00 0.00 0.00 0.00 0.00 0.00 0.00 0.00 0.00 0.00 0.00 0.00 0.00 0.00 0.00 0.02 0.00 0.00 0.00
0.00 0.00 0.00 0.00 0.00 0.00 0.00 0.00 0.00 0.00 0.00 0.00 0.00 0.00 0.00 0.00 0.00 0.00 0.00 0.00 0.00 0.00 0.00 0.00 0.00 0.00 0.00 0.00 0.00 0.00 0.00 0.00 0.00 0.00 0.00 0.00 0.00 0.00 0.00 0.00 0.00 0.01 0.00 0.00 0.00
0.00 0.00 0.00 0.00 0.00 0.00 0.00 0.00 0.00 0.00 0.00 0.00 0.00 0.00 0.00 0.00 0.00 0.00 0.00 0.00 0.00 0.00 0.00 0.00 0.00 0.00 0.00 0.00 0.00 0.00 0.00 0.00 0.00 0.00 0.00 0.00 0.00 0.00 0.00 0.00 0.00 0.02 0.01 0.00 0.00
0.00 0.00 0.00 0.00 0.00 0.00 0.00 0.00 0.00 0.00 0.00 0.00 0.00 0.00 0.00 0.00 0.00 0.00 0.00 0.00 0.00 0.00 0.00 0.00 0.00 0.00 0.00 0.00 0.00 0.00 0.00 0.00 0.00 0.00 0.00 0.00 0.00 0.00 0.00 0.00 0.00 0.03 0.04 0.01 0.00
0.00 0.00 0.00 0.00 0.00 0.00 0.00 0.00 0.00 0.00 0.00 0.00 0.00 0.00 0.00 0.00 0.00 0.00 0.00 0.00 0.00 0.00 0.00 0.00 0.00 0.00 0.00 0.00 0.00 0.00 0.00 0.00 0.00 0.00 0.00 0.00 0.00 0.00 0.00 0.00 0.00 0.01 0.02 0.02 0.01
0.00 0.00 0.00 0.00 0.00 0.00 0.00 0.00 0.00 0.00 0.00 0.00 0.00 0.00 0.00 0.00 0.00 0.00 0.00 0.00 0.00 0.00 0.00 0.00 0.00 0.00 0.00 0.00 0.00 0.00 0.00 0.00 0.00 0.00 0.00 0.00 0.00 0.00 0.00 0.00 0.00 0.00 0.00 0.01 0.01
0.00 0.00 0.00 0.00 0.00 0.00 0.00 0.00 0.00 0.00 0.00 0.00 0.00 0.00 0.00 0.00 0.00 0.00 0.00 0.00 0.00 0.00 0.00 0.00 0.00 0.00 0.00 0.00 0.00 0.00 0.00 0.00 0.00 0.00 0.00 0.00 0.00 0.00 0.00 0.00 0.00 0.00 0.01 0.00 0.00
0.00 0.00 0.00 0.00 0.00 0.00 0.00 0.00 0.00 0.00 0.00 0.00 0.00 0.00 0.00 0.00 0.00 0.00 0.00 0.00 0.00 0.00 0.00 0.00 0.00 0.00 0.00 0.00 0.00 0.00 0.00 0.00 0.00 0.00 0.00 0.00 0.00 0.00 0.00 0.00 0.00 0.00 0.00 0.00 0.01
0.00 0.00 0.00 0.00 0.00 0.00 0.00 0.00 0.00 0.00 0.00 0.00 0.00 0.00 0.00 0.00 0.00 0.00 0.00 0.00 0.00 0.00 0.00 0.00 0.00 0.00 0.00 0.00 0.00 0.00 0.00 0.00 0.00 0.00 0.00 0.00 0.00 0.00 0.00 0.00 0.00 0.00 0.00 0.00 0.00
0.00 0.00 0.00 0.00 0.00 0.00 0.00 0.00 0.00 0.00 0.00 0.00 0.00 0.00 0.00 0.00 0.00 0.00 0.00 0.00 0.00 0.00 0.00 0.00 0.00 0.00 0.00 0.00 0.00 0.00 0.00 0.00 0.00 0.00 0.00 0.00 0.00 0.00 0.00 0.00 0.00 0.00 0.00 0.00 0.00
0.00 0.00 0.00 0.00 0.00 0.00 0.00 0.00 0.00 0.00 0.00 0.00 0.00 0.00 0.00 0.00 0.00 0.00 0.00 0.00 0.00 0.00 0.00 0.00 0.00 0.00 0.00 0.00 0.00 0.00 0.00 0.00 0.00 0.00 0.00 0.00 0.00 0.00 0.00 0.00 0.00 0.00 0.00 0.00 0.00
0.00 0.00 0.00 0.00 0.00 0.00 0.00 0.00 0.00 0.00 0.00 0.00 0.00 0.00 0.00 0.00 0.00 0.00 0.00 0.00 0.00 0.00 0.00 0.00 0.00 0.00 0.00 0.00 0.00 0.00 0.00 0.00 0.00 0.00 0.00 0.00 0.00 0.00 0.00 0.00 0.00 0.00 0.00 0.00 0.00
0.00 0.00 0.00 0.00 0.00 0.00 0.00 0.00 0.00 0.00 0.00 0.00 0.00 0.00 0.00 0.00 0.00 0.00 0.00 0.00 0.00 0.00 0.00 0.00 0.00 0.01 0.02 0.01 0.01 0.01 0.00 0.00 0.00 0.00 0.00 0.00 0.00 0.00 0.00 0.00 0.00 0.00 0.00 0.00 0.00
0.00 0.00 0.00 0.00 0.00 0.00 0.00 0.00 0.00 0.00 0.00 0.00 0.00 0.00 0.00 0.00 0.00 0.00 0.00 0.00 0.00 0.00 0.00 0.00 0.00 0.00 0.00 0.00 0.01 0.01 0.01 0.00 0.00 0.00 0.00 0.00 0.00 0.00 0.00 0.00 0.00 0.00 0.00 0.00 0.00
0.00 0.00 0.00 0.00 0.00 0.00 0.00 0.00 0.00 0.00 0.00 0.00 0.00 0.00 0.00 0.00 0.00 0.00 0.00 0.00 0.00 0.00 0.00 0.00 0.00 0.00 0.00 0.00 0.01 0.02 0.01 0.00 0.00 0.00 0.00 0.00 0.00 0.00 0.00 0.00 0.00 0.00 0.00 0.00 0.00
0.00 0.00 0.00 0.00 0.00 0.00 0.00 0.00 0.00 0.00 0.00 0.00 0.00 0.00 0.00 0.00 0.00 0.00 0.00 0.00 0.00 0.00 0.00 0.00 0.00 0.00 0.00 0.01 0.01 0.01 0.01 0.00 0.00 0.00 0.00 0.00 0.00 0.00 0.00 0.00 0.00 0.00 0.00 0.00 0.00
0.00 0.00 0.00 0.00 0.00 0.00 0.00 0.00 0.00 0.00 0.00 0.00 0.00 0.00 0.00 0.00 0.00 0.00 0.00 0.00 0.00 0.00 0.00 0.00 0.00 0.00 0.00 0.01 0.01 0.01 0.00 0.00 0.00 0.00 0.00 0.00 0.00 0.00 0.00 0.00 0.00 0.00 0.00 0.00 0.00
0.00 0.00 0.00 0.00 0.00 0.00 0.00 0.00 0.00 0.00 0.00 0.00 0.00 0.00 0.00 0.00 0.00 0.00 0.00 0.00 0.00 0.00 0.00 0.00 0.00 0.00 0.00 0.00 0.00 0.00 0.00 0.00 0.00 0.00 0.00 0.00 0.00 0.00 0.00 0.00 0.00 0.00 0.00 0.00 0.00
0.00 0.00 0.00 0.00 0.00 0.00 0.00 0.00 0.00 0.00 0.00 0.00 0.00 0.00 0.00 0.00 0.00 0.00 0.00 0.00 0.00 0.00 0.00 0.00 0.00 0.00 0.00 0.00 0.00 0.00 0.00 0.00 0.00 0.00 0.00 0.00 0.00 0.00 0.03 0.05 0.03 0.01 0.00 0.00 0.00
0.00 0.00 0.00 0.00 0.00 0.00 0.00 0.00 0.00 0.00 0.00 0.00 0.00 0.00 0.00 0.00 0.00 0.00 0.00 0.00 0.00 0.00 0.00 0.00 0.00 0.00 0.00 0.00 0.00 0.00 0.00 0.00 0.00 0.00 0.00 0.00 0.00 0.00 0.00 0.00 0.01 0.01 0.01 0.00 0.00
0.00 0.00 0.00 0.00 0.00 0.00 0.00 0.00 0.00 0.00 0.00 0.00 0.00 0.00 0.00 0.00 0.00 0.00 0.00 0.00 0.00 0.00 0.00 0.00 0.00 0.00 0.00 0.00 0.00 0.00 0.00 0.00 0.00 0.00 0.00 0.00 0.00 0.00 0.00 0.00 0.00 0.00 0.00 0.00 0.00
0.00 0.00 0.00 0.00 0.00 0.00 0.00 0.00 0.00 0.00 0.00 0.00 0.00 0.00 0.00 0.00 0.00 0.00 0.00 0.00 0.00 0.00 0.00 0.00 0.00 0.00 0.00 0.00 0.00 0.00 0.00 0.00 0.00 0.00 0.00 0.00 0.00 0.00 0.00 0.00 0.00 0.00 0.00 0.00 0.00
0.00 0.00 0.00 0.00 0.00 0.00 0.00 0.00 0.00 0.00 0.00 0.00 0.00 0.00 0.00 0.00 0.00 0.00 0.00 0.00 0.00 0.00 0.00 0.00 0.00 0.00 0.00 0.00 0.00 0.00 0.00 0.00 0.00 0.00 0.00 0.01 0.00 0.00 0.00 0.00 0.00 0.00 0.00 0.00 0.00
MSLP
1020.69 1020.16 1019.61 1018.97 1018.36 1017.93 1017.49 1016.95 1016.40 1016.09 1015.53 1015.26 1014.88 1014.39 1014.10 1013.94 1013.75 1013.31 1012.53 1011.00 1010.63 1009.87 1009.74 1009.38 1009.15 1009.45 1009.63 1009.84 1009.86 1010.20 1011.03 1010.53 1009.09 1008.36 1007.01 1005.73 1005.62 1004.84 1004.76 1004.99 1004.92 1004.75 1004.65 1004.64 1006.31
1020.67 1020.12 1019.43 1018.83 1018.27 1017.84 1017.41 1016.88 1016.35 1015.88 1015.44 1015.06 1014.65 1014.17 1013.96 1013.95 1013.53 1012.50 1011.05 1010.39 1009.96 1009.88 1009.99 1009.57 1009.36 1009.58 1009.91 1009.86 1009.73 1009.94 1010.11 1008.89 1007.41 1007.16 1006.67 1005.83 1005.89 1005.35 1004.91 1004.90 1005.19 1004.81 1004.66 1004.79 1006.63
1020.77 1020.16 1019.53 1018.79 1018.14 1017.62 1017.07 1016.58 1016.02 1015.66 1015.26 1014.83 1014.32 1013.98 1013.88 1013.72 1013.05 1011.63 1010.44 1009.94 1009.34 1008.98 1009.72 1009.53 1009.40 1009.46 1009.81 1009.77 1009.52 1009.20 1008.12 1007.77 1006.80 1006.65 1006.52 1005.91 1005.50 1005.62 1005.02 1004.77 1004.36 1004.46 1004.88 1005.64 1006.55
1020.87 1020.20 1019.34 1018.47 1017.87 1017.18 1016.67 1016.05 1015.60 1015.20 1014.79 1014.49 1014.15 1013.77 1013.54 1013.52 1013.42 1011.64 1010.67 1010.17 1009.59 1009.38 1009.88 1009.68 1009.62 1009.77 1009.76 1009.60 1009.12 1008.76 1007.63 1007.23 1006.22 1006.15 1006.20 1005.72 1005.06 1005.18 1004.92 1003.92 1003.70 1004.13 1005.28 1005.48 1006.06
1020.78 1019.99 1019.18 1018.45 1017.67 1016.88 1016.17 1015.56 1015.02 1014.74 1014.44 1014.23 1013.98 1013.69 1013.57 1013.17 1012.81 1011.52 1011.21 1010.65 1010.00 1010.08 1010.03 1009.94 1009.90 1009.81 1009.79 1009.36 1008.91 1008.18 1007.64 1006.94 1006.13 1005.55 1005.42 1005.20 1004.47 1004.31 1004.24 1003.50 1003.52 1003.98 1004.57 1005.28 1005.96
1020.73 1019.92 1019.04 1018.16 1017.27 1016.37 1015.58 1015.04 1014.57 1014.25 1014.10 1014.12 1014.03 1013.75 1013.48 1012.95 1012.36 1011.82 1011.69 1010.90 1010.79 1010.47 1010.12 1009.95 1009.66 1009.50 1009.46 1009.33 1009.04 1007.86 1007.29 1006.50 1005.78 1004.82 1004.93 1004.84 1004.32 1004.16 1002.32 1002.59 1002.61 1002.83 1003.50 1004.45 1005.66
1020.58 1019.68 1018.77 1017.92 1017.10 1016.15 1015.35 1014.77 1014.32 1013.91 1013.86 1013.93 1014.02 1013.99 1013.30 1013.35 1012.34 1012.23 1011.74 1011.48 1011.07 1010.60 1010.26 1009.55 1009.31 1009.56 1009.27 1009.07 1008.26 1007.89 1007.25 1006.18 1004.68 1004.34 1004.30 1004.50 1003.48 1002.31 1001.76 1002.23 1002.20 1002.45 1003.11 1003.80 1004.94
1020.63 1019.76 1018.84 1018.03 1017.21 1016.25 1015.21 1014.60 1014.15 1013.81 1013.73 1013.91 1014.03 1014.03 1013.28 1012.36 1012.15 1011.64 1011.33 1010.80 1010.27 1010.01 1010.07 1009.31 1008.90 1009.12 1009.15 1008.87 1008.42 1008.21 1007.42 1006.01 1002.95 1003.65 1003.80 1004.41 1001.90 1001.20 1001.31 1001.73 1001.77 1002.21 1003.26 1003.91 1004.70
1020.76 1019.92 1019.13 1018.25 1017.48 1016.38 1014.94 1014.43 1013.98 1013.80 1013.88 1014.03 1014.22 1014.15 1013.54 1012.42 1011.89 1012.27 1012.20 1011.53 1010.45 1009.95 1009.22 1008.39 1008.32 1008.58 1008.73 1009.00 1009.28 1008.08 1006.30 1005.02 1003.86 1003.70 1003.73 1003.53 1001.28 1001.04 1000.96 1001.52 1001.81 1002.11 1002.45 1003.37 1004.13
1020.89 1020.03 1019.24 1018.41 1017.62 1016.65 1014.93 1014.40 1014.10 1014.00 1014.39 1014.17 1014.21 1014.31 1013.56 1013.02 1012.68 1012.63 1012.39 1011.31 1010.72 1010.31 1009.38 1008.90 1008.76 1008.61 1008.32 1008.43 1007.53 1006.69 1007.09 1005.81 1004.83 1004.10 1003.70 1003.30 1001.53 1001.28 1001.29 1001.41 1001.29 1001.85 1002.05 1002.40 1003.05
1020.94 1020.00 1019.13 1018.50 1017.77 1017.16 1015.61 1015.13 1015.88 1015.31 1015.68 1016.36 1016.11 1015.66 1014.89 1013.90 1013.05 1013.34 1012.65 1011.22 1011.10 1010.97 1010.83 1010.49 1009.75 1008.18 1006.96 1008.03 1007.15 1007.28 1006.51 1005.75 1004.87 1004.10 1003.31 1002.55 1001.57 1000.95 1001.51 1001.40 1001.35 1001.21 1001.37 1001.72 1002.09
1020.91 1019.96 1019.01 1018.45 1017.90 1017.41 1017.11 1017.88 1018.59 1018.81 1017.84 1016.57 1015.82 1015.63 1014.84 1013.95 1013.84 1014.00 1013.18 1012.62 1012.47 1012.45 1011.90 1011.42 1009.49 1008.81 1007.90 1007.85 1007.37 1007.06 1006.21 1004.92 1004.20 1004.29 1003.45 1002.12 1001.13 1001.06 1001.17 1000.72 1000.27 1000.58 1000.74 1000.82 1001.40
1021.15 1020.09 1019.02 1018.12 1017.70 1017.81 1018.28 1018.67 1018.44 1018.50 1018.56 1017.15 1016.10 1015.61 1015.12 1014.35 1014.64 1014.63 1014.04 1013.76 1013.59 1013.19 1012.99 1012.57 1009.41 1009.32 1008.67 1007.79 1007.34 1006.43 1005.62 1004.30 1004.08 1004.04 1002.97 1002.34 1000.87 1000.54 1000.21 1000.00 999.75 999.59 999.36 999.78 1000.00
1021.33 1020.28 1019.23 1018.19 1018.11 1018.65 1018.42 1018.45 1018.29 1018.26 1018.41 1018.34 1016.99 1016.10 1015.59 1014.74 1015.12 1015.32 1015.05 1014.97 1014.66 1014.14 1013.14 1011.87 1010.18 1009.55 1008.47 1007.55 1006.81 1005.51 1004.94 1004.32 1004.12 1003.85 1002.64 1001.68 1000.33 1000.05 999.73 999.49 999.29 998.74 998.90 998.88 999.16
1021.12 1020.25 1019.48 1018.82 1019.25 1019.13 1018.66 1018.31 1018.14 1018.51 1019.26 1019.09 1018.02 1017.04 1017.13 1017.46 1016.90 1016.07 1015.76 1014.99 1015.16 1014.93 1014.69 1012.95 1010.97 1009.87 1008.94 1007.20 1006.21 1004.78 1004.46 1003.99 1003.52 1003.06 1002.43 1001.70 1001.10 999.35 999.19 999.06 998.70 998.17 997.81 997.69 997.76
1021.27 1020.24 1019.51 1019.33 1019.50 1018.97 1018.46 1018.24 1018.49 1019.49 1020.67 1019.96 1019.26 1018.47 1018.22 1018.27 1017.79 1017.04 1016.98 1016.41 1015.37 1014.93 1014.66 1013.33 1011.14 1010.39 1009.61 1007.61 1005.59 1004.30 1004.07 1003.47 1002.77 1002.26 1001.88 1000.93 1000.76 999.18 998.90 997.96 997.75 997.68 997.35 997.07 997.24
1021.26 1020.38 1019.93 1019.72 1019.92 1018.43 1018.54 1018.93 1020.27 1021.72 1022.33 1021.62 1020.55 1020.08 1019.97 1019.72 1018.73 1018.24 1018.15 1017.71 1017.63 1016.03 1015.15 1012.84 1011.52 1011.54 1010.63 1009.06 1006.40 1004.63 1004.03 1003.14 1002.33 1001.43 1000.86 1000.22 1000.16 998.52 997.66 997.15 996.90 997.01 996.69 996.27 996.43
1021.12 1020.49 1020.12 1019.81 1019.19 1018.55 1018.83 1020.35 1022.50 1023.65 1023.15 1022.46 1021.62 1021.13 1021.37 1020.89 1020.30 1019.74 1019.57 1019.68 1019.51 1019.37 1017.90 1016.13 1012.70 1012.54 1011.41 1011.71 1009.64 1005.98 1004.32 1002.15 1001.11 1000.58 1000.22 999.81 999.00 997.49 997.15 996.67 996.74 996.51 995.92 995.18 995.69
1021.03 1020.95 1020.66 1019.78 1018.79 1018.58 1020.08 1022.56 1024.60 1024.21 1023.65 1022.96 1022.29 1022.00 1022.40 1022.46 1022.07 1021.15 1020.83 1020.91 1020.66 1020.39 1020.39 1017.82 1015.00 1013.07 1013.05 1010.20 1008.38 1004.88 1003.76 1002.43 1001.52 1000.51 1000.64 1000.31 998.70 997.75 997.53 997.38 997.47 997.23 996.61 996.14 995.57
1022.44 1022.22 1021.77 1020.92 1019.62 1019.59 1021.52 1024.20 1024.77 1024.30 1023.68 1023.30 1023.30 1023.20 1023.34 1023.10 1022.75 1022.22 1021.67 1021.44 1021.30 1021.14 1020.54 1019.22 1016.35 1013.36 1012.29 1010.20 1008.33 1007.77 1006.61 1004.21 1001.92 1001.73 1001.79 1001.02 1000.26 1000.48 999.88 999.37 999.20 998.54 998.27 997.72 997.22
1022.99 1023.46 1022.78 1021.47 1020.96 1022.30 1024.76 1025.15 1024.83 1024.26 1023.93 1023.84 1023.93 1024.01 1024.33 1023.96 1023.63 1022.96 1022.51 1021.75 1021.53 1021.17 1020.69 1019.77 1018.47 1014.63 1013.30 1013.31 1011.86 1009.75 1009.29 1007.82 1005.17 1004.00 1003.27 1003.11 1002.79 1002.56 1001.71 1000.56 1000.32 1000.50 999.86 999.26 998.78
1024.60 1025.22 1024.01 1022.88 1023.90 1025.67 1026.55 1025.84 1025.13 1024.78 1024.35 1024.19 1024.23 1024.60 1024.95 1024.35 1023.77 1023.31 1022.89 1022.40 1021.80 1021.43 1020.76 1020.21 1019.05 1017.02 1015.29 1014.56 1013.83 1013.09 1012.19 1010.42 1008.44 1007.43 1006.25 1005.15 1004.54 1003.59 1003.09 1002.33 1001.76 1001.60 1001.13 1000.61 1000.04
1026.94 1026.92 1025.39 1024.65 1027.17 1028.06 1027.32 1026.51 1025.74 1025.58 1025.26 1025.02 1024.97 1025.31 1025.30 1025.06 1024.46 1023.63 1022.97 1022.51 1022.06 1021.70 1021.04 1020.50 1019.73 1018.29 1015.93 1015.23 1014.34 1013.83 1012.27 1011.94 1010.81 1009.44 1008.36 1007.43 1006.38 1005.58 1004.47 1003.81 1003.36 1002.77 1002.32 1001.91 1001.53
1027.99 1028.60 1028.33 1028.28 1029.05 1028.88 1028.55 1027.94 1027.12 1026.31 1025.98 1026.10 1025.76 1025.66 1025.74 1025.49 1025.31 1023.86 1023.51 1022.65 1022.45 1021.90 1021.11 1020.93 1020.69 1020.46 1019.77 1018.22 1017.09 1014.95 1013.04 1012.36 1012.26 1010.84 1010.20 1009.50 1008.63 1007.51 1006.36 1005.40 1004.80 1004.12 1003.85 1003.29 1002.81
1029.32 1031.01 1030.98 1030.72 1030.02 1029.56 1028.98 1028.75 1027.96 1027.44 1026.91 1026.61 1026.31 1026.69 1026.58 1025.71 1024.89 1024.34 1024.10 1023.04 1021.87 1021.33 1021.11 1021.24 1020.69 1020.00 1019.34 1018.19 1017.24 1015.64 1014.31 1013.18 1012.23 1012.48 1011.88 1010.93 1010.28 1009.67 1008.62 1007.09 1006.68 1006.25 1005.45 1004.58 1004.29
1030.78 1031.57 1031.40 1031.23 1030.68 1030.03 1029.57 1029.38 1028.88 1028.40 1028.08 1027.18 1027.22 1026.99 1026.63 1026.33 1026.17 1024.92 1024.41 1023.43 1022.32 1020.69 1020.95 1020.91 1020.34 1019.79 1018.74 1017.80 1016.91 1015.90 1015.07 1014.18 1013.57 1013.35 1012.81 1011.79 1011.86 1011.70 1010.87 1009.18 1008.09 1007.78 1007.18 1006.34 1005.88
1031.42 1031.85 1031.79 1031.58 1031.14 1030.69 1030.41 1030.08 1029.54 1029.10 1028.15 1027.77 1027.52 1027.16 1026.51 1026.22 1025.87 1024.94 1023.89 1022.96 1021.93 1021.59 1021.18 1021.02 1020.44 1019.74 1018.79 1017.91 1016.72 1016.13 1015.97 1014.44 1014.10 1014.67 1014.45 1014.39 1014.25 1012.94 1012.28 1011.49 1010.71 1009.92 1008.91 1008.21 1007.44
Thickness
5624 5627 5630 5634 5637 5638 5639 5641 5644 5644 5647 5647 5647 5649 5649 5647 5647 5649 5653 5664 5668 5673 5674 5676 5677 5674 5672 5668 5670 5666 5642 5645 5669 5676 5698 5718 5708 5719 5724 5717 5722 5730 5736 5747 5740
5623 5625 5629 5631 5634 5634 5635 5637 5639 5641 5642 5642 5643 5644 5643 5640 5642 5645 5661 5664 5666 5666 5664 5665 5664 5663 5654 5658 5660 5653 5637 5657 5688 5690 5690 5704 5698 5703 5706 5709 5710 5723 5739 5744 5733
5619 5622 5624 5628 5630 5631 5632 5633 5636 5636 5636 5638 5640 5640 5638 5637 5643 5650 5658 5661 5665 5667 5659 5659 5659 5656 5649 5651 5652 5652 5661 5672 5685 5688 5687 5691 5694 5696 5695 5694 5714 5720 5728 5731 5728
5614 5617 5621 5625 5626 5628 5629 5632 5633 5634 5635 5635 5635 5635 5635 5633 5623 5642 5650 5652 5655 5656 5649 5648 5646 5641 5638 5638 5647 5642 5657 5666 5684 5683 5680 5684 5694 5689 5692 5708 5723 5724 5723 5726 5725
5611 5614 5617 5619 5622 5626 5629 5631 5632 5632 5632 5631 5631 5630 5629 5630 5625 5637 5638 5641 5644 5641 5638 5635 5630 5629 5627 5633 5637 5639 5649 5658 5671 5677 5675 5683 5690 5690 5688 5709 5714 5719 5722 5723 5720
5607 5611 5615 5619 5622 5626 5629 5629 5630 5630 5629 5626 5624 5623 5623 5615 5626 5627 5626 5630 5627 5627 5627 5626 5625 5623 5621 5623 5625 5640 5639 5650 5661 5678 5673 5674 5680 5680 5710 5711 5712 5717 5721 5723 5717
5604 5610 5614 5617 5619 5624 5626 5627 5627 5627 5624 5620 5616 5614 5616 5606 5616 5615 5616 5614 5614 5615 5614 5619 5619 5612 5614 5612 5625 5628 5625 5641 5662 5669 5666 5670 5668 5689 5714 5704 5705 5712 5715 5721 5717
5601 5605 5610 5613 5615 5618 5622 5622 5622 5621 5618 5613 5608 5604 5605 5610 5608 5609 5609 5610 5610 5608 5605 5609 5610 5604 5602 5606 5609 5606 5614 5620 5673 5667 5666 5660 5672 5701 5706 5696 5698 5705 5704 5709 5710
5597 5601 5604 5607 5609 5612 5618 5617 5616 5614 5609 5604 5598 5594 5588 5598 5594 5590 5589 5591 5596 5593 5595 5602 5600 5594 5594 5583 5575 5591 5609 5622 5643 5655 5653 5649 5676 5697 5699 5695 5691 5696 5703 5705 5705
5590 5594 5598 5601 5603 5605 5612 5611 5608 5605 5597 5593 5589 5582 5580 5577 5578 5575 5573 5578 5577 5576 5579 5577 5572 5573 5576 5573 5576 5597 5578 5597 5604 5629 5636 5636 5657 5683 5688 5687 5692 5690 5696 5704 5706
5585 5589 5592 5593 5595 5596 5602 5597 5579 5582 5573 5565 5562 5560 5558 5562 5563 5555 5557 5567 5559 5555 5542 5547 5546 5563 5583 5564 5579 5573 5579 5585 5597 5617 5627 5634 5651 5674 5669 5670 5678 5686 5691 5698 5706
5581 5584 5587 5586 5586 5584 5583 5567 5556 5547 5539 5551 5551 5548 5548 5546 5539 5532 5537 5531 5525 5514 5518 5517 5530 5544 5551 5546 5551 5553 5562 5576 5597 5599 5610 5634 5641 5655 5656 5666 5680 5684 5687 5695 5702
5573 5577 5580 5583 5580 5574 5564 5554 5548 5541 5525 5538 5541 5537 5533 5532 5518 5509 5514 5507 5496 5499 5496 5485 5528 5524 5522 5524 5527 5538 5548 5574 5577 5586 5600 5614 5621 5635 5658 5666 5672 5684 5694 5697 5705
5565 5570 5574 5577 5571 5560 5557 5549 5542 5535 5520 5519 5520 5520 5520 5517 5505 5495 5492 5483 5478 5474 5482 5478 5501 5493 5504 5506 5515 5518 5549 5562 5561 5561 5576 5606 5603 5626 5645 5654 5661 5681 5687 5694 5702
5561 5564 5566 5565 5557 5549 5548 5542 5536 5525 5495 5508 5503 5505 5494 5479 5476 5481 5473 5474 5462 5457 5451 5459 5468 5474 5473 5502 5509 5513 5533 5539 5553 5558 5573 5586 5578 5611 5637 5643 5652 5669 5688 5696 5707
5557 5560 5561 5557 5550 5548 5544 5539 5527 5493 5471 5492 5488 5482 5478 5469 5464 5466 5455 5454 5456 5449 5444 5446 5466 5463 5465 5481 5506 5523 5517 5526 5544 5555 5543 5582 5576 5604 5614 5648 5665 5668 5683 5695 5702
5553 5555 5554 5551 5541 5547 5540 5527 5493 5428 5482 5470 5469 5467 5455 5446 5450 5448 5433 5425 5414 5418 5420 5447 5456 5441 5441 5445 5473 5503 5506 5507 5520 5535 5543 5586 5573 5606 5634 5656 5672 5675 5678 5695 5704
5550 5551 5549 5545 5543 5542 5531 5506 5430 5474 5464 5466 5461 5456 5432 5433 5430 5429 5419 5404 5404 5394 5385 5402 5429 5419 5432 5408 5419 5452 5501 5519 5530 5539 5558 5581 5570 5604 5645 5662 5662 5667 5678 5700 5704
5549 5545 5540 5540 5542 5538 5512 5440 5445 5460 5457 5451 5449 5440 5423 5416 5405 5408 5400 5391 5390 5382 5359 5373 5410 5434 5418 5429 5457 5498 5516 5529 5543 5560 5553 5562 5598 5622 5633 5640 5645 5654 5666 5677 5699
5534 5528 5527 5527 5532 5523 5491 5469 5461 5457 5451 5442 5427 5426 5408 5404 5396 5393 5387 5389 5382 5379 5372 5376 5390 5433 5435 5446 5463 5458 5477 5514 5537 5547 5549 5566 5587 5569 5586 5608 5623 5638 5648 5659 5670
5525 5511 5513 5517 5513 5493 5448 5457 5460 5453 5442 5430 5419 5411 5399 5394 5388 5381 5380 5387 5378 5375 5368 5365 5375 5418 5430 5406 5417 5440 5440 5459 5497 5512 5550 5558 5544 5556 5569 5594 5608 5614 5628 5640 5651
5506 5482 5499 5501 5478 5440 5430 5451 5453 5438 5435 5423 5418 5405 5389 5389 5389 5383 5378 5374 5373 5369 5355 5358 5368 5386 5407 5398 5410 5428 5411 5435 5466 5481 5495 5510 5532 5552 5558 5576 5591 5599 5611 5622 5634
5482 5471 5483 5482 5427 5413 5434 5439 5439 5423 5418 5410 5403 5394 5385 5378 5374 5379 5379 5376 5369 5363 5355 5357 5351 5366 5402 5407 5414 5407 5431 5422 5441 5464 5484 5497 5517 5532 5549 5558 5569 5582 5594 5605 5615
5467 5443 5447 5441 5427 5427 5419 5418 5414 5415 5407 5395 5393 5386 5374 5371 5367 5372 5364 5370 5362 5361 5373 5360 5337 5329 5339 5356 5371 5392 5420 5436 5418 5454 5463 5479 5483 5498 5515 5544 5549 5562 5572 5584 5598
5448 5426 5426 5402 5410 5411 5413 5405 5401 5394 5394 5386 5382 5368 5359 5359 5365 5361 5351 5356 5365 5366 5357 5350 5345 5352 5355 5364 5371 5388 5408 5422 5430 5423 5448 5459 5473 5472 5485 5523 5525 5534 5548 5563 5574
5430 5417 5414 5407 5408 5405 5399 5389 5386 5379 5373 5376 5364 5358 5352 5343 5336 5335 5338 5343 5347 5363 5349 5342 5343 5351 5363 5369 5377 5381 5399 5413 5417 5419 5431 5445 5447 5442 5455 5494 5507 5513 5522 5535 5547
5425 5413 5409 5399 5394 5391 5384 5379 5376 5369 5371 5362 5354 5347 5346 5344 5337 5335 5335 5337 5338 5331 5330 5330 5329 5339 5346 5361 5369 5371 5366 5401 5416 5397 5402 5412 5415 5425 5438 5449 5468 5483 5497 5507 5523